Weather History for Redding, CA

Change the Weather History Date:

Wednesday, March 21, 2012

  Actual Average Record
Temperature  
Mean Temperature 50 °F -  
Max Temperature 57 °F 65 °F 85 °F (2004)
Min Temperature 43 °F 43 °F 33 °F (1987)
Degree Days  
Heating Degree Days 15    
Month to date heating degree days 299  
Cooling Degree Days 0    
Month to date cooling degree days 0  
Year to date cooling degree days 0  
Moisture  
Dew Point 44 °F    
Average Humidity 79    
Maximum Humidity 92    
Minimum Humidity 66    
Precipitation  
Precipitation T in 0.11 in 1.50 in (1998)
Month to date precipitation 3.16 3.33  
Year to date precipitation 10.40 14.80  
Since 1 July precipitation 16.73 28.56  
Snow  
Snow 0.00 in - - ()
Month to date snowfall 0.0  
Since 1 July snowfall 0.0  
Snow Depth 0.00 in    
Sea Level Pressure  
Sea Level Pressure 30.05 in    
Wind  
Wind Speed 1 mph (North)    
Max Wind Speed 23 mph    
Max Gust Speed 33 mph    
Visibility 10 miles    
Events Rain    
T = Trace of Precipitation, MM = Missing Value Source: NWS Daily Summary

Daily Weather History Graph

Daily Weather History Graph

Search for Another Location

Airport:

Trip Planner

Search our weather history database for the weather conditions in past years. The results will help you decide how hot, cold, wet, or windy it might be!

Date:

Astronomy

Mar. 21, 2012 Rise Set
Actual Time 7:09 AM PDT 7:22 PM PDT
Civil Twilight 6:42 AM PDT 7:50 PM PDT
Nautical Twilight 6:10 AM PDT 8:22 PM PDT
Astronomical Twilight 5:38 AM PDT 8:54 PM PDT
Moon 6:23 AM PDT (3/21) 6:55 PM PDT (3/21)
Length of Visible Light 13h 07m
Length of Day
12h 13m
Waning Crescent, 1% of the Moon is Illuminated
Mar 21
Waning Crescent
Mar 22
New
Mar 30
First Quarter
Apr 6
Full
Apr 13
Last Quarter

Hourly Weather History & Observations

Time (PDT) Temp. Windchill Dew Point Humidity Pressure Visibility Wind Dir Wind Speed Gust Speed Precip Events Conditions
12:53 AM 46.0 °F - 42.1 °F 86% 30.18 in 10.0 mi Calm Calm - N/A   Overcast
1:53 AM 46.0 °F - 42.1 °F 86% 30.18 in 10.0 mi Calm Calm - 0.00 in   Overcast
2:53 AM 46.0 °F - 43.0 °F 89% 30.17 in 10.0 mi Calm Calm - N/A   Overcast
3:53 AM 46.0 °F 44.8 °F 43.0 °F 89% 30.14 in 10.0 mi North 3.5 mph - 0.00 in   Overcast
4:53 AM 45.0 °F - 43.0 °F 93% 30.12 in 10.0 mi Calm Calm - 0.00 in Rain Light Rain
5:53 AM 45.0 °F - 43.0 °F 93% 30.12 in 10.0 mi Calm Calm - 0.00 in   Overcast
6:53 AM 45.0 °F 42.6 °F 43.0 °F 93% 30.12 in 10.0 mi West 4.6 mph - N/A   Overcast
7:18 AM 44.6 °F 43.1 °F 42.8 °F 93% 30.11 in 10.0 mi West 3.5 mph - N/A   Overcast
7:39 AM 44.6 °F - 42.8 °F 93% 30.11 in 10.0 mi Calm Calm - N/A   Overcast
7:53 AM 46.0 °F - 43.0 °F 89% 30.12 in 10.0 mi Calm Calm - N/A   Overcast
8:53 AM 46.9 °F - 43.0 °F 86% 30.12 in 10.0 mi Calm Calm - N/A   Overcast
9:53 AM 48.0 °F - 44.1 °F 86% 30.11 in 10.0 mi Calm Calm - N/A   Overcast
10:53 AM 50.0 °F - 44.1 °F 80% 30.11 in 10.0 mi Calm Calm - N/A   Overcast
11:02 AM 50.0 °F - 44.6 °F 82% 30.11 in 10.0 mi NW 4.6 mph - N/A   Overcast
11:53 AM 51.1 °F - 44.1 °F 77% 30.10 in 10.0 mi North 3.5 mph - N/A   Overcast
12:07 PM 51.8 °F - 44.6 °F 76% 30.09 in 10.0 mi North 3.5 mph - N/A   Overcast
12:53 PM 54.0 °F - 44.1 °F 69% 30.07 in 10.0 mi Calm Calm - N/A   Overcast
1:20 PM 53.6 °F - 44.6 °F 72% 30.06 in 10.0 mi East 3.5 mph - N/A   Overcast
1:53 PM 54.0 °F - 44.1 °F 69% 30.04 in 10.0 mi Calm Calm - N/A   Overcast
2:53 PM 55.0 °F - 44.1 °F 67% 30.01 in 10.0 mi NE 3.5 mph - N/A   Overcast
3:53 PM 55.9 °F - 45.0 °F 67% 29.99 in 10.0 mi North 4.6 mph - N/A   Overcast
4:53 PM 55.0 °F - 45.0 °F 69% 29.96 in 10.0 mi NNE 4.6 mph - N/A   Overcast
5:53 PM 55.0 °F - 45.0 °F 69% 29.93 in 10.0 mi NNE 5.8 mph - N/A   Overcast
6:53 PM 54.0 °F - 45.0 °F 72% 29.92 in 10.0 mi Calm Calm - N/A   Overcast
7:53 PM 54.0 °F - 45.0 °F 72% 29.89 in 10.0 mi Calm Calm - N/A   Overcast
8:53 PM 51.1 °F - 46.0 °F 83% 29.88 in 10.0 mi Calm Calm - N/A   Scattered Clouds
9:53 PM 52.0 °F - 46.0 °F 80% 29.88 in 10.0 mi Calm Calm - N/A   Overcast
10:53 PM 50.0 °F - 46.0 °F 86% 29.86 in 10.0 mi East 3.5 mph - N/A   Clear
11:53 PM 54.0 °F - 45.0 °F 72% 29.85 in 10.0 mi South 4.6 mph - N/A   Mostly Cloudy